"read_dt","SO2 (ppb)","flags","PMT voltage (V)","lamp voltage (V)","lamp intensity (Hz)","internal temp (C)","react chamber temp (C)","sample flow (l/min)","pres (mmHg)","SO2 bkg (ppb)","SO2 coefficient"
2014-06-13 00:00:00,1792E-3,5C000000,-0724,0842,12068,027.8,045.5,0.485,734.3,01.18,0.508
2014-06-13 00:01:00,1807E-3,5C000000,-0724,0842,12198,027.8,045.5,0.484,734.3,01.18,0.508
2014-06-13 00:02:00,1923E-3,5C000000,-0724,0843,12135,027.8,045.5,0.485,734.3,01.18,0.508
2014-06-13 00:03:00,1924E-3,5C000000,-0724,0842,11919,027.9,045.5,0.484,734.3,01.18,0.508
2014-06-13 00:04:00,1826E-3,5C000000,-0724,0842,11985,027.9,045.5,0.484,734.3,01.18,0.508
2014-06-13 00:05:00,1843E-3,5C000000,-0724,0843,12175,028.0,045.5,0.485,734.2,01.18,0.508
2014-06-13 00:06:00,1938E-3,5C000000,-0724,0843,12206,028.0,045.5,0.484,734.2,01.18,0.508
2014-06-13 00:07:00,1896E-3,5C000000,-0724,0842,12095,028.1,045.5,0.485,734.3,01.18,0.508
2014-06-13 00:08:00,1858E-3,5C000000,-0724,0843,12054,028.1,045.5,0.484,734.3,01.18,0.508
2014-06-13 00:09:00,1758E-3,5C000000,-0724,0842,12071,028.1,045.5,0.484,734.3,01.18,0.508
2014-06-13 00:10:00,1891E-3,5C000000,-0724,0842,12145,028.2,045.5,0.484,734.3,01.18,0.508
2014-06-13 00:11:00,1922E-3,5C000000,-0724,0843,12187,028.2,045.5,0.484,734.2,01.18,0.508
2014-06-13 00:12:00,1935E-3,5C000000,-0724,0843,12047,028.2,045.5,0.484,734.2,01.18,0.508
2014-06-13 00:13:00,1811E-3,5C000000,-0724,0843,12126,028.3,045.5,0.484,734.2,01.18,0.508
2014-06-13 00:14:00,1844E-3,5C000000,-0724,0843,11995,028.3,045.5,0.484,734.3,01.18,0.508
2014-06-13 00:15:00,1763E-3,5C000000,-0724,0842,12112,028.3,045.5,0.484,734.2,01.18,0.508
2014-06-13 00:16:00,1767E-3,5C000000,-0724,0842,12165,028.3,045.5,0.484,734.2,01.18,0.508
2014-06-13 00:17:00,1932E-3,5C000000,-0724,0843,11974,028.3,045.5,0.484,734.3,01.18,0.508
2014-06-13 00:18:00,1945E-3,5C000000,-0724,0842,12176,028.4,045.5,0.484,734.3,01.18,0.508
2014-06-13 00:19:00,1800E-3,5C000000,-0724,0842,12192,028.4,045.5,0.484,734.3,01.18,0.508
2014-06-13 00:20:00,1891E-3,5C000000,-0724,0842,11981,028.4,045.5,0.483,734.3,01.18,0.508
2014-06-13 00:21:00,1770E-3,5C000000,-0724,0843,12121,028.5,045.5,0.484,734.3,01.18,0.508
2014-06-13 00:22:00,1867E-3,5C000000,-0724,0842,12135,028.4,045.5,0.483,734.4,01.18,0.508
2014-06-13 00:23:00,1714E-3,5C000000,-0724,0842,11886,028.4,045.5,0.484,734.2,01.18,0.508
2014-06-13 00:24:00,1838E-3,5C000000,-0724,0842,12152,028.5,045.5,0.484,734.4,01.18,0.508
2014-06-13 00:25:00,1932E-3,5C000000,-0724,0842,12082,028.5,045.5,0.484,734.3,01.18,0.508
2014-06-13 00:26:00,1890E-3,5C000000,-0724,0842,12040,028.5,045.5,0.484,734.5,01.18,0.508
2014-06-13 00:27:00,1773E-3,5C000000,-0724,0844,12147,028.5,045.5,0.484,734.4,01.18,0.508
2014-06-13 00:28:00,1890E-3,5C000000,-0724,0841,12022,028.5,045.5,0.484,734.5,01.18,0.508
2014-06-13 00:29:00,1778E-3,5C000000,-0724,0842,12090,028.5,045.5,0.483,734.4,01.18,0.508
2014-06-13 00:30:00,1793E-3,5C000000,-0724,0842,11858,028.4,045.5,0.484,734.4,01.18,0.508
2014-06-13 00:31:00,1894E-3,5C000000,-0724,0843,12063,028.4,045.5,0.483,734.4,01.18,0.508
2014-06-13 00:32:00,1865E-3,5C000000,-0724,0841,12132,028.4,045.5,0.484,734.3,01.18,0.508
2014-06-13 00:33:00,1831E-3,5C000000,-0724,0842,12084,028.3,045.5,0.483,734.5,01.18,0.508
2014-06-13 00:34:00,1832E-3,5C000000,-0724,0841,11879,028.3,045.5,0.484,734.5,01.18,0.508
2014-06-13 00:35:00,1900E-3,5C000000,-0724,0842,12196,028.3,045.5,0.483,734.5,01.18,0.508
2014-06-13 00:36:00,1972E-3,5C000000,-0724,0842,12056,028.3,045.5,0.484,734.5,01.18,0.508
2014-06-13 00:37:00,1890E-3,5C000000,-0724,0843,12040,028.2,045.5,0.483,734.5,01.18,0.508
2014-06-13 00:38:00,1816E-3,5C000000,-0724,0841,12126,028.2,045.5,0.484,734.4,01.18,0.508
2014-06-13 00:39:00,1916E-3,5C000000,-0724,0841,12031,028.1,045.5,0.483,734.4,01.18,0.508
2014-06-13 00:40:00,1914E-3,5C000000,-0724,0843,12091,028.1,045.5,0.484,734.5,01.18,0.508
2014-06-13 00:41:00,1777E-3,5C000000,-0724,0842,12011,028.1,045.5,0.484,734.5,01.18,0.508
2014-06-13 00:42:00,1826E-3,5C000000,-0724,0842,12006,028.0,045.5,0.484,734.5,01.18,0.508
2014-06-13 00:43:00,1843E-3,5C000000,-0724,0843,12105,028.0,045.5,0.484,734.5,01.18,0.508
2014-06-13 00:44:00,1775E-3,5C000000,-0724,0843,12231,028.0,045.5,0.484,734.4,01.18,0.508
2014-06-13 00:45:00,1704E-3,5C000000,-0724,0841,12115,028.0,045.5,0.484,734.4,01.18,0.508
2014-06-13 00:46:00,1922E-3,5C000000,-0724,0843,12181,027.9,045.5,0.484,734.4,01.18,0.508
2014-06-13 00:47:00,1865E-3,5C000000,-0724,0841,11923,027.9,045.5,0.484,734.4,01.18,0.508
2014-06-13 00:48:00,1833E-3,5C000000,-0724,0842,12138,027.8,045.5,0.484,734.4,01.18,0.508
2014-06-13 00:49:00,1827E-3,5C000000,-0724,0842,12112,027.8,045.5,0.484,734.4,01.18,0.508
2014-06-13 00:50:00,1822E-3,5C000000,-0724,0843,12000,027.8,045.5,0.484,734.4,01.18,0.508
2014-06-13 00:51:00,1942E-3,5C000000,-0724,0842,12047,027.7,045.5,0.485,734.4,01.18,0.508
2014-06-13 00:52:00,1852E-3,5C000000,-0724,0843,11918,027.7,045.5,0.484,734.4,01.18,0.508
2014-06-13 00:53:00,1871E-3,5C000000,-0724,0843,11967,027.7,045.5,0.485,734.4,01.18,0.508
2014-06-13 00:54:00,1901E-3,5C000000,-0724,0841,12080,027.7,045.5,0.484,734.4,01.18,0.508
2014-06-13 00:55:00,1842E-3,5C000000,-0724,0842,11950,027.6,045.5,0.485,734.4,01.18,0.508
2014-06-13 00:56:00,1842E-3,5C000000,-0724,0843,12024,027.6,045.5,0.485,734.4,01.18,0.508
2014-06-13 00:57:00,1829E-3,5C000000,-0724,0841,12099,027.6,045.5,0.484,734.3,01.18,0.508
2014-06-13 00:58:00,1664E-3,5C000000,-0724,0842,12000,027.6,045.5,0.485,734.3,01.18,0.508
2014-06-13 00:59:00,1864E-3,5C000000,-0724,0841,11858,027.5,045.5,0.485,734.2,01.18,0.508
2014-06-13 01:00:00,1873E-3,5C000000,-0724,0841,11988,027.5,045.5,0.485,734.2,01.18,0.508
2014-06-13 01:01:00,1866E-3,5C000000,-0724,0842,12055,027.5,045.5,0.485,734.3,01.18,0.508
2014-06-13 01:02:00,1727E-3,5C000000,-0724,0842,12256,027.5,045.5,0.485,734.2,01.18,0.508
2014-06-13 01:03:00,1773E-3,5C000000,-0724,0842,12059,027.5,045.5,0.485,734.2,01.18,0.508
2014-06-13 01:04:00,1889E-3,5C000000,-0724,0842,11996,027.5,045.5,0.485,734.2,01.18,0.508
2014-06-13 01:05:00,1842E-3,5C000000,-0724,0841,11968,027.5,045.5,0.485,734.2,01.18,0.508
2014-06-13 01:06:00,1787E-3,5C000000,-0724,0842,12019,027.6,045.5,0.485,734.2,01.18,0.508
2014-06-13 01:07:00,1907E-3,5C000000,-0724,0843,12090,027.6,045.5,0.485,734.2,01.18,0.508
2014-06-13 01:08:00,1834E-3,5C000000,-0724,0842,12033,027.7,045.5,0.485,734.2,01.18,0.508
2014-06-13 01:09:00,1807E-3,5C000000,-0724,0842,12231,027.7,045.5,0.484,734.2,01.18,0.508
2014-06-13 01:10:00,1794E-3,5C000000,-0724,0841,12128,027.8,045.5,0.485,734.2,01.18,0.508
2014-06-13 01:11:00,1746E-3,5C000000,-0724,0842,12094,027.8,045.5,0.485,734.2,01.18,0.508
2014-06-13 01:12:00,1875E-3,5C000000,-0724,0843,12092,027.9,045.5,0.484,734.2,01.18,0.508
2014-06-13 01:13:00,1861E-3,5C000000,-0724,0842,12115,027.9,045.5,0.485,734.2,01.18,0.508
2014-06-13 01:14:00,1796E-3,5C000000,-0724,0844,11993,027.9,045.5,0.484,734.2,01.18,0.508
2014-06-13 01:15:00,1972E-3,5C000000,-0724,0842,11939,028.0,045.5,0.484,734.1,01.19,0.508
2014-06-13 01:16:00,1895E-3,5C000000,-0724,0843,11894,028.0,045.5,0.484,734.1,01.19,0.508
2014-06-13 01:17:00,1794E-3,5C000000,-0724,0842,12260,028.0,045.5,0.484,734.1,01.19,0.508
2014-06-13 01:18:00,1707E-3,5C000000,-0724,0843,12067,028.0,045.5,0.484,734.1,01.19,0.508
2014-06-13 01:19:00,1841E-3,5C000000,-0724,0842,12300,028.0,045.5,0.485,734.1,01.19,0.508
2014-06-13 01:20:00,1804E-3,5C000000,-0724,0843,12183,028.0,045.5,0.484,734.1,01.19,0.508
2014-06-13 01:21:00,1779E-3,5C000000,-0724,0843,12006,028.0,045.5,0.484,734.1,01.19,0.508
2014-06-13 01:22:00,1747E-3,5C000000,-0724,0842,12215,027.9,045.5,0.484,734.1,01.19,0.508
2014-06-13 01:23:00,1829E-3,5C000000,-0724,0842,11998,027.9,045.5,0.484,734.1,01.19,0.508
2014-06-13 01:24:00,1797E-3,5C000000,-0724,0842,12122,027.9,045.5,0.484,734.1,01.19,0.508
2014-06-13 01:25:00,1798E-3,5C000000,-0724,0842,12054,027.9,045.5,0.484,734.1,01.19,0.508
2014-06-13 01:26:00,1924E-3,5C000000,-0724,0842,12118,027.9,045.5,0.484,734.1,01.19,0.508
2014-06-13 01:27:00,1911E-3,5C000000,-0724,0841,12016,027.9,045.5,0.484,734.1,01.19,0.508
2014-06-13 01:28:00,1753E-3,5C000000,-0724,0843,12143,027.9,045.5,0.484,734.1,01.19,0.508
2014-06-13 01:29:00,1753E-3,5C000000,-0724,0842,12233,027.9,045.5,0.484,734.1,01.19,0.508
2014-06-13 01:30:00,1831E-3,5C000000,-0724,0842,12029,027.9,045.5,0.484,734.0,01.19,0.508
2014-06-13 01:31:00,1754E-3,5C000000,-0724,0842,12083,027.9,045.5,0.484,734.0,01.19,0.508
2014-06-13 01:32:00,1836E-3,5C000000,-0724,0842,11944,027.9,045.5,0.484,734.0,01.19,0.508
2014-06-13 01:33:00,1808E-3,5C000000,-0724,0842,11972,027.9,045.5,0.484,734.0,01.19,0.508
2014-06-13 01:34:00,1910E-3,5C000000,-0724,0842,12142,027.9,045.5,0.484,734.0,01.19,0.508
2014-06-13 01:35:00,1973E-3,5C000000,-0724,0842,12134,027.9,045.5,0.484,733.9,01.19,0.508
2014-06-13 01:36:00,1833E-3,5C000000,-0724,0842,12149,027.9,045.5,0.484,733.9,01.19,0.508
2014-06-13 01:37:00,1917E-3,5C000000,-0724,0842,11957,027.9,045.5,0.484,733.9,01.19,0.508
2014-06-13 01:38:00,1797E-3,5C000000,-0724,0842,11996,027.9,045.5,0.484,733.8,01.19,0.508
2014-06-13 01:39:00,1805E-3,5C000000,-0724,0841,11989,027.9,045.5,0.484,733.8,01.19,0.508
2014-06-13 01:40:00,1838E-3,5C000000,-0724,0842,12137,027.9,045.5,0.484,733.8,01.19,0.508
2014-06-13 01:41:00,1920E-3,5C000000,-0724,0844,12245,027.9,045.5,0.484,733.8,01.19,0.508
2014-06-13 01:42:00,1758E-3,5C000000,-0724,0843,12045,028.0,045.5,0.484,733.8,01.19,0.508
2014-06-13 01:43:00,1856E-3,5C000000,-0724,0841,12109,027.9,045.5,0.484,733.8,01.19,0.508
2014-06-13 01:44:00,1993E-3,5C000000,-0724,0842,12111,028.0,045.5,0.484,733.7,01.19,0.508
2014-06-13 01:45:00,1964E-3,5C000000,-0724,0842,12085,028.0,045.5,0.484,733.7,01.19,0.508
2014-06-13 01:46:00,1806E-3,5C000000,-0724,0842,11800,028.0,045.5,0.484,733.8,01.19,0.508
2014-06-13 01:47:00,1706E-3,5C000000,-0724,0843,12247,028.0,045.5,0.484,733.8,01.19,0.508
2014-06-13 01:48:00,1893E-3,5C000000,-0724,0843,12224,028.0,045.5,0.484,733.7,01.19,0.508
2014-06-13 01:49:00,1837E-3,5C000000,-0724,0843,12123,028.0,045.5,0.484,733.7,01.19,0.508
2014-06-13 01:50:00,1734E-3,5C000000,-0724,0843,12241,028.0,045.5,0.484,733.7,01.19,0.508
2014-06-13 01:51:00,1774E-3,5C000000,-0724,0842,12069,028.0,045.5,0.484,733.8,01.19,0.508
2014-06-13 01:52:00,1846E-3,5C000000,-0724,0843,12005,028.0,045.5,0.484,733.7,01.19,0.508
2014-06-13 01:53:00,1834E-3,5C000000,-0724,0842,12136,028.0,045.5,0.484,733.8,01.19,0.508
2014-06-13 01:54:00,1841E-3,5C000000,-0724,0842,12068,028.0,045.5,0.484,733.7,01.19,0.508
2014-06-13 01:55:00,1908E-3,5C000000,-0724,0843,11994,028.0,045.5,0.484,733.7,01.19,0.508
2014-06-13 01:56:00,1828E-3,5C000000,-0724,0843,12125,028.1,045.5,0.484,733.6,01.19,0.508
2014-06-13 01:57:00,1743E-3,5C000000,-0724,0842,12087,028.1,045.5,0.484,733.6,01.19,0.508
2014-06-13 01:58:00,1774E-3,5C000000,-0724,0843,12061,028.1,045.5,0.483,733.6,01.19,0.508
2014-06-13 01:59:00,1894E-3,5C000000,-0724,0842,12173,028.1,045.5,0.484,733.7,01.19,0.508
2014-06-13 02:00:00,1666E-3,5C000000,-0724,0842,11931,028.1,045.5,0.483,733.7,01.19,0.508
2014-06-13 02:01:00,1899E-3,5C000000,-0724,0842,11946,028.1,045.5,0.484,733.6,01.19,0.508
2014-06-13 02:02:00,1691E-3,5C000000,-0724,0842,12055,028.1,045.5,0.483,733.6,01.19,0.508
2014-06-13 02:03:00,1651E-3,5C000000,-0724,0842,11884,028.1,045.5,0.484,733.6,01.19,0.508
2014-06-13 02:04:00,1881E-3,5C000000,-0724,0843,11901,028.1,045.5,0.483,733.6,01.19,0.508
2014-06-13 02:05:00,1933E-3,5C000000,-0724,0842,12066,028.1,045.5,0.484,733.5,01.19,0.508
2014-06-13 02:06:00,1663E-3,5C000000,-0724,0842,12051,028.2,045.5,0.483,733.5,01.19,0.508
2014-06-13 02:07:00,1938E-3,5C000000,-0724,0843,12131,028.2,045.5,0.484,733.5,01.19,0.508
2014-06-13 02:08:00,1868E-3,5C000000,-0724,0841,12159,028.2,045.5,0.483,733.6,01.19,0.508
2014-06-13 02:09:00,1912E-3,5C000000,-0724,0842,12039,028.2,045.5,0.484,733.5,01.19,0.508
2014-06-13 02:10:00,1876E-3,5C000000,-0724,0842,12089,028.2,045.5,0.483,733.5,01.19,0.508
2014-06-13 02:11:00,1812E-3,5C000000,-0724,0843,11932,028.2,045.5,0.484,733.5,01.19,0.508
2014-06-13 02:12:00,1896E-3,5C000000,-0724,0842,12120,028.2,045.5,0.483,733.5,01.19,0.508
2014-06-13 02:13:00,1807E-3,5C000000,-0724,0842,12042,028.2,045.5,0.484,733.4,01.19,0.508
2014-06-13 02:14:00,1826E-3,5C000000,-0724,0842,11999,028.2,045.5,0.483,733.4,01.19,0.508
2014-06-13 02:15:00,1850E-3,5C000000,-0724,0843,12002,028.3,045.5,0.483,733.5,01.19,0.508
2014-06-13 02:16:00,1788E-3,5C000000,-0724,0841,12090,028.3,045.5,0.483,733.5,01.19,0.508
2014-06-13 02:17:00,1766E-3,5C000000,-0724,0842,12028,028.3,045.5,0.483,733.5,01.19,0.508
2014-06-13 02:18:00,1720E-3,5C000000,-0724,0842,12245,028.3,045.5,0.483,733.4,01.19,0.508
2014-06-13 02:19:00,1760E-3,5C000000,-0724,0842,12087,028.3,045.5,0.483,733.5,01.19,0.508
2014-06-13 02:20:00,1758E-3,5C000000,-0724,0841,12042,028.3,045.5,0.484,733.5,01.19,0.508
2014-06-13 02:21:00,1805E-3,5C000000,-0724,0841,12155,028.3,045.5,0.483,733.5,01.19,0.508
2014-06-13 02:22:00,1715E-3,5C000000,-0724,0842,12009,028.3,045.5,0.484,733.4,01.19,0.508
2014-06-13 02:23:00,1760E-3,5C000000,-0724,0843,12055,028.3,045.5,0.484,733.5,01.19,0.508
2014-06-13 02:24:00,1849E-3,5C000000,-0724,0843,12060,028.3,045.5,0.483,733.5,01.19,0.508
2014-06-13 02:25:00,1801E-3,5C000000,-0724,0842,11811,028.3,045.5,0.484,733.5,01.19,0.508
2014-06-13 02:26:00,1883E-3,5C000000,-0724,0843,12088,028.4,045.5,0.483,733.5,01.19,0.508
2014-06-13 02:27:00,1788E-3,5C000000,-0724,0843,12231,028.4,045.5,0.483,733.5,01.19,0.508
2014-06-13 02:28:00,1787E-3,5C000000,-0724,0843,11980,028.4,045.5,0.483,733.5,01.19,0.508
2014-06-13 02:29:00,1879E-3,5C000000,-0724,0842,12074,028.4,045.5,0.483,733.5,01.19,0.508
2014-06-13 02:30:00,1712E-3,5C000000,-0724,0842,12157,028.4,045.5,0.483,733.4,01.19,0.508
2014-06-13 02:31:00,1793E-3,5C000000,-0724,0842,12157,028.4,045.5,0.483,733.4,01.19,0.508
2014-06-13 02:32:00,1756E-3,5C000000,-0724,0841,12080,028.4,045.5,0.483,733.5,01.19,0.508
2014-06-13 02:33:00,1877E-3,5C000000,-0724,0843,11791,028.4,045.5,0.483,733.4,01.19,0.508
2014-06-13 02:34:00,1734E-3,5C000000,-0724,0843,11884,028.4,045.5,0.483,733.4,01.19,0.508
2014-06-13 02:35:00,1916E-3,5C000000,-0724,0841,12040,028.4,045.5,0.483,733.4,01.19,0.508
2014-06-13 02:36:00,1829E-3,5C000000,-0724,0843,11822,028.4,045.5,0.483,733.4,01.19,0.508
2014-06-13 02:37:00,1757E-3,5C000000,-0724,0843,12174,028.5,045.5,0.483,733.3,01.19,0.508
2014-06-13 02:38:00,1867E-3,5C000000,-0724,0842,12074,028.4,045.5,0.483,733.2,01.19,0.508
2014-06-13 02:39:00,1816E-3,5C000000,-0724,0842,12147,028.5,045.5,0.483,733.2,01.19,0.508
2014-06-13 02:40:00,1805E-3,5C000000,-0724,0842,12086,028.5,045.5,0.483,733.2,01.19,0.508
2014-06-13 02:41:00,1959E-3,5C000000,-0724,0842,12241,028.5,045.5,0.483,733.2,01.19,0.508
2014-06-13 02:42:00,1903E-3,5C000000,-0724,0842,12138,028.5,045.5,0.483,733.1,01.19,0.508
2014-06-13 02:43:00,1863E-3,5C000000,-0724,0843,11989,028.5,045.5,0.483,733.1,01.19,0.508
2014-06-13 02:44:00,1915E-3,5C000000,-0724,0842,12106,028.5,045.5,0.483,733.1,01.19,0.508
2014-06-13 02:45:00,1832E-3,5C000000,-0724,0841,11957,028.5,045.5,0.483,733.1,01.19,0.508
2014-06-13 02:46:00,1765E-3,5C000000,-0724,0842,12196,028.5,045.5,0.483,733.1,01.19,0.508
2014-06-13 02:47:00,1952E-3,5C000000,-0724,0843,11795,028.5,045.5,0.483,733.1,01.19,0.508
2014-06-13 02:48:00,1781E-3,5C000000,-0724,0842,12074,028.6,045.5,0.483,733.1,01.19,0.508
2014-06-13 02:49:00,1827E-3,5C000000,-0724,0842,11907,028.5,045.5,0.482,733.0,01.19,0.508
2014-06-13 02:50:00,1802E-3,5C000000,-0724,0842,11998,028.6,045.5,0.483,733.0,01.19,0.508
2014-06-13 02:51:00,1759E-3,5C000000,-0724,0842,12085,028.6,045.5,0.483,733.0,01.19,0.508
2014-06-13 02:52:00,1676E-3,5C000000,-0724,0842,12186,028.6,045.5,0.483,733.0,01.19,0.508
2014-06-13 02:53:00,1796E-3,5C000000,-0724,0842,11970,028.6,045.5,0.483,733.0,01.19,0.508
2014-06-13 02:54:00,1866E-3,5C000000,-0724,0842,11773,028.6,045.5,0.482,732.9,01.19,0.508
2014-06-13 02:55:00,1861E-3,5C000000,-0724,0843,11976,028.6,045.5,0.483,733.0,01.19,0.508
2014-06-13 02:56:00,1717E-3,5C000000,-0724,0842,12074,028.6,045.5,0.483,732.8,01.19,0.508
2014-06-13 02:57:00,1794E-3,5C000000,-0724,0842,11996,028.6,045.5,0.482,732.9,01.19,0.508
2014-06-13 02:58:00,1918E-3,5C000000,-0724,0842,12160,028.6,045.5,0.483,732.8,01.19,0.508
2014-06-13 02:59:00,1977E-3,5C000000,-0724,0843,12226,028.6,045.5,0.483,732.9,01.19,0.508
2014-06-13 03:00:00,1742E-3,5C000000,-0724,0842,12033,028.6,045.5,0.482,732.8,01.19,0.508
2014-06-13 03:01:00,1906E-3,5C000000,-0724,0842,11990,028.7,045.5,0.483,732.9,01.19,0.508
2014-06-13 03:02:00,1830E-3,5C000000,-0724,0842,12155,028.7,045.5,0.482,732.8,01.19,0.508
2014-06-13 03:03:00,1757E-3,5C000000,-0724,0842,12069,028.7,045.5,0.483,732.8,01.19,0.508
2014-06-13 03:04:00,1963E-3,5C000000,-0724,0842,11976,028.7,045.5,0.483,732.8,01.19,0.508
2014-06-13 03:05:00,1843E-3,5C000000,-0724,0842,12056,028.7,045.5,0.482,732.8,01.19,0.508
2014-06-13 03:06:00,1850E-3,5C000000,-0724,0843,12221,028.7,045.5,0.483,732.8,01.19,0.508
2014-06-13 03:07:00,1901E-3,5C000000,-0724,0842,12041,028.7,045.5,0.483,732.7,01.19,0.508
2014-06-13 03:08:00,1970E-3,5C000000,-0724,0843,12154,028.7,045.5,0.482,732.7,01.19,0.508
2014-06-13 03:09:00,1772E-3,5C000000,-0724,0842,11803,028.7,045.5,0.483,732.8,01.19,0.508
2014-06-13 03:10:00,1800E-3,5C000000,-0724,0842,12223,028.7,045.5,0.483,732.7,01.19,0.508
2014-06-13 03:11:00,1762E-3,5C000000,-0724,0842,12124,028.7,045.5,0.482,732.7,01.19,0.508
2014-06-13 03:12:00,1989E-3,5C000000,-0724,0843,12002,028.7,045.5,0.483,732.7,01.19,0.508
2014-06-13 03:13:00,1819E-3,5C000000,-0724,0841,11865,028.7,045.5,0.482,732.7,01.19,0.508
2014-06-13 03:14:00,1848E-3,5C000000,-0724,0842,12114,028.7,045.5,0.482,732.7,01.19,0.508
2014-06-13 03:15:00,1939E-3,5C000000,-0724,0842,12035,028.8,045.5,0.483,732.7,01.19,0.508
2014-06-13 03:16:00,1843E-3,5C000000,-0724,0842,11840,028.8,045.5,0.482,732.7,01.19,0.508
2014-06-13 03:17:00,1858E-3,5C000000,-0724,0844,12176,028.8,045.5,0.482,732.7,01.19,0.508
2014-06-13 03:18:00,1804E-3,5C000000,-0724,0842,12203,028.8,045.5,0.483,732.7,01.19,0.508
2014-06-13 03:19:00,1876E-3,5C000000,-0724,0841,12161,028.8,045.5,0.482,732.7,01.19,0.508
2014-06-13 03:20:00,1749E-3,5C000000,-0724,0842,12106,028.8,045.5,0.482,732.7,01.19,0.508
2014-06-13 03:21:00,1901E-3,5C000000,-0724,0842,12178,028.8,045.5,0.483,732.6,01.19,0.508
2014-06-13 03:22:00,1828E-3,5C000000,-0724,0842,12123,028.8,045.5,0.482,732.7,01.19,0.508
2014-06-13 03:23:00,1853E-3,5C000000,-0724,0843,12023,028.8,045.5,0.482,732.6,01.19,0.508
2014-06-13 03:24:00,2056E-3,5C000000,-0724,0843,11981,028.8,045.5,0.483,732.6,01.19,0.508
2014-06-13 03:25:00,1810E-3,5C000000,-0724,0842,12025,028.8,045.5,0.482,732.6,01.19,0.508
2014-06-13 03:26:00,1858E-3,5C000000,-0724,0843,11901,028.8,045.5,0.482,732.5,01.19,0.508
2014-06-13 03:27:00,1938E-3,5C000000,-0724,0842,12131,028.8,045.5,0.482,732.5,01.19,0.508
2014-06-13 03:28:00,1868E-3,5C000000,-0724,0842,12175,028.8,045.5,0.482,732.5,01.19,0.508
2014-06-13 03:29:00,1800E-3,5C000000,-0724,0842,12229,028.9,045.5,0.482,732.5,01.19,0.508
2014-06-13 03:30:00,1917E-3,5C000000,-0724,0843,11900,028.9,045.5,0.483,732.5,01.19,0.508
2014-06-13 03:31:00,1927E-3,5C000000,-0724,0842,12095,028.9,045.5,0.482,732.5,01.19,0.508
2014-06-13 03:32:00,1817E-3,5C000000,-0724,0842,12042,028.9,045.5,0.482,732.5,01.19,0.508
2014-06-13 03:33:00,1945E-3,5C000000,-0724,0842,12263,028.9,045.5,0.482,732.5,01.19,0.508
2014-06-13 03:34:00,1795E-3,5C000000,-0724,0842,12108,028.9,045.5,0.482,732.5,01.19,0.508
2014-06-13 03:35:00,1668E-3,5C000000,-0724,0842,12028,028.9,045.5,0.482,732.4,01.19,0.508
2014-06-13 03:36:00,1933E-3,5C000000,-0724,0842,12012,028.9,045.5,0.482,732.4,01.19,0.508
2014-06-13 03:37:00,1836E-3,5C000000,-0724,0842,12132,028.9,045.5,0.482,732.4,01.19,0.508
2014-06-13 03:38:00,1805E-3,5C000000,-0724,0842,11938,029.0,045.5,0.482,732.4,01.19,0.508
2014-06-13 03:39:00,1808E-3,5C000000,-0724,0843,12072,029.0,045.5,0.482,732.4,01.19,0.508
2014-06-13 03:40:00,1802E-3,5C000000,-0724,0843,12109,028.9,045.5,0.482,732.4,01.19,0.508
2014-06-13 03:41:00,1945E-3,5C000000,-0724,0843,12081,029.0,045.5,0.482,732.4,01.19,0.508
2014-06-13 03:42:00,1961E-3,5C000000,-0724,0842,12028,029.0,045.5,0.482,732.4,01.19,0.508
2014-06-13 03:43:00,1680E-3,5C000000,-0724,0843,12181,029.0,045.5,0.482,732.4,01.19,0.508
2014-06-13 03:44:00,1863E-3,5C000000,-0724,0843,12197,029.0,045.5,0.482,732.4,01.19,0.508
2014-06-13 03:45:00,1903E-3,5C000000,-0724,0842,12220,029.0,045.5,0.482,732.3,01.19,0.508
2014-06-13 03:46:00,1777E-3,5C000000,-0724,0842,11937,029.0,045.5,0.482,732.3,01.19,0.508
2014-06-13 03:47:00,1881E-3,5C000000,-0724,0843,12115,029.0,045.5,0.482,732.2,01.19,0.508
2014-06-13 03:48:00,1878E-3,5C000000,-0724,0842,12030,029.0,045.5,0.482,732.2,01.19,0.508
2014-06-13 03:49:00,1833E-3,5C000000,-0724,0842,11926,029.0,045.5,0.482,732.2,01.19,0.508
2014-06-13 03:50:00,1870E-3,5C000000,-0724,0843,12100,029.1,045.5,0.482,732.3,01.19,0.508
2014-06-13 03:51:00,1862E-3,5C000000,-0724,0842,12163,029.1,045.5,0.482,732.2,01.19,0.508
2014-06-13 03:52:00,1730E-3,5C000000,-0724,0843,12037,029.1,045.5,0.482,732.2,01.19,0.508
2014-06-13 03:53:00,1894E-3,5C000000,-0724,0843,12133,029.1,045.5,0.482,732.2,01.19,0.508
2014-06-13 03:54:00,1794E-3,5C000000,-0724,0841,12097,029.1,045.5,0.482,732.2,01.19,0.508
2014-06-13 03:55:00,1952E-3,5C000000,-0724,0843,12065,029.1,045.5,0.482,732.2,01.19,0.508
2014-06-13 03:56:00,1874E-3,5C000000,-0724,0844,12048,029.1,045.5,0.482,732.2,01.19,0.508
2014-06-13 03:57:00,1789E-3,5C000000,-0724,0842,11956,029.1,045.5,0.482,732.2,01.19,0.508
2014-06-13 03:58:00,1796E-3,5C000000,-0724,0842,12075,029.1,045.5,0.481,732.2,01.19,0.508
2014-06-13 03:59:00,1742E-3,5C000000,-0724,0842,12102,029.1,045.5,0.482,732.2,01.19,0.508
2014-06-13 04:00:00,1810E-3,5C000000,-0724,0842,12223,029.1,045.5,0.482,732.2,01.19,0.508
2014-06-13 04:01:00,1888E-3,5C000000,-0724,0842,12179,029.2,045.5,0.481,732.2,01.19,0.508
2014-06-13 04:02:00,1827E-3,5C000000,-0724,0843,12028,029.2,045.5,0.481,732.1,01.19,0.508
2014-06-13 04:03:00,1850E-3,5C000000,-0724,0843,12159,029.2,045.5,0.482,732.1,01.19,0.508
2014-06-13 04:04:00,1918E-3,5C000000,-0724,0842,11887,029.2,045.5,0.482,732.1,01.19,0.508
2014-06-13 04:05:00,1793E-3,5C000000,-0724,0843,12090,029.2,045.5,0.481,732.2,01.19,0.508
2014-06-13 04:06:00,1863E-3,5C000000,-0724,0843,11946,029.2,045.5,0.482,732.1,01.19,0.508
2014-06-13 04:07:00,1857E-3,5C000000,-0724,0843,11838,029.2,045.5,0.482,732.0,01.19,0.508
2014-06-13 04:08:00,1986E-3,5C000000,-0724,0843,12118,029.2,045.5,0.481,732.1,01.19,0.508
2014-06-13 04:09:00,1776E-3,5C000000,-0724,0842,11890,029.2,045.5,0.481,732.1,01.19,0.508
2014-06-13 04:10:00,1853E-3,5C000000,-0724,0842,11900,029.2,045.5,0.482,732.1,01.19,0.508
2014-06-13 04:11:00,1930E-3,5C000000,-0724,0843,11945,029.2,045.5,0.482,732.1,01.19,0.508
2014-06-13 04:12:00,1837E-3,5C000000,-0724,0843,12201,029.2,045.6,0.481,732.1,01.19,0.508
2014-06-13 04:13:00,1759E-3,5C000000,-0724,0843,12127,029.2,045.6,0.481,732.0,01.19,0.508
2014-06-13 04:14:00,1875E-3,5C000000,-0724,0843,12046,029.2,045.5,0.482,732.0,01.19,0.508
2014-06-13 04:15:00,1945E-3,5C000000,-0724,0844,12309,029.3,045.5,0.482,732.0,01.19,0.508
2014-06-13 04:16:00,1718E-3,5C000000,-0724,0843,12086,029.3,045.5,0.481,732.0,01.19,0.508
2014-06-13 04:17:00,1824E-3,5C000000,-0724,0843,11992,029.3,045.6,0.481,732.0,01.19,0.508
2014-06-13 04:18:00,1748E-3,5C000000,-0724,0843,12008,029.3,045.5,0.482,732.0,01.19,0.508
2014-06-13 04:19:00,1924E-3,5C000000,-0724,0844,12171,029.3,045.5,0.481,731.9,01.19,0.508
2014-06-13 04:20:00,1837E-3,5C000000,-0724,0843,11961,029.3,045.5,0.481,731.9,01.19,0.508